TYCHE (60496 NORAD) Tracking and Keplerian Element Data

This shows tracking and keplerian element data for the satellite.

Feedback or suggestion? Click here.




ElementValue
Catalog60496
NameTYCHE
Epoch Orbit865
Epoch Day286.8414255
Epoch Year2024
RAAN1.4917
Inclination97.4376
Eccentricity0.00038
Argument of Perigee290.3194
Mean Anonmoly69.7632
Mean Motion15.18946161
Decay Rate0.00011569
L11 60496U 24149AE 24286.84142550 .00011569 00000+0 55642-3 0 9992
L22 60496 97.4376 1.4917 0003800 290.3194 69.7632 15.18946161 8658



Live tracking and technical data element details for TYCHE (NORAD 60496). TYCHE can be tracked NOW for your location showing map with azimuth and elevation plus other details from your city location.







IsCatalogInMostPopularTable: catalog: 60496, numindb: 6
Update: records affected: 1



GetName: 60496 TYCHE

Hit Count: updated at: Wed, 04 Dec 2024 19:32:19 GMT